TimePDT,TemperatureF,Dew PointF,Humidity,Sea Level PressureIn,VisibilityMPH,Wind Direction,Wind SpeedMPH,Gust SpeedMPH,PrecipitationIn,Events,Conditions,WindDirDegrees,DateUTC
12:53 AM,57.0,50.0,77,29.85,10.0,NW,12.7,-,N/A,,Clear,320,2013-09-18 07:53:00
1:53 AM,54.0,48.9,83,29.86,10.0,North,4.6,-,N/A,,Clear,350,2013-09-18 08:53:00
2:53 AM,54.0,48.9,83,29.85,10.0,NW,6.9,-,N/A,,Clear,320,2013-09-18 09:53:00
3:53 AM,52.0,48.0,86,29.84,10.0,North,3.5,-,N/A,,Clear,350,2013-09-18 10:53:00
4:53 AM,51.1,46.9,86,29.84,10.0,Calm,Calm,-,N/A,,Clear,0,2013-09-18 11:53:00
5:53 AM,48.0,44.1,86,29.86,10.0,Calm,Calm,-,N/A,,Clear,0,2013-09-18 12:53:00
6:53 AM,46.0,43.0,89,29.88,10.0,NNE,4.6,-,N/A,,Clear,20,2013-09-18 13:53:00
7:53 AM,50.0,45.0,83,29.90,10.0,Calm,Calm,-,N/A,,Clear,0,2013-09-18 14:53:00
8:53 AM,55.9,48.9,77,29.91,10.0,Calm,Calm,-,N/A,,Clear,0,2013-09-18 15:53:00
9:53 AM,60.1,48.9,67,29.89,10.0,Calm,Calm,-,N/A,,Clear,0,2013-09-18 16:53:00
10:53 AM,68.0,48.9,50,29.88,10.0,WNW,6.9,-,N/A,,Clear,300,2013-09-18 17:53:00
11:53 AM,73.9,46.9,38,29.86,10.0,Calm,Calm,-,N/A,,Clear,0,2013-09-18 18:53:00
12:53 PM,79.0,45.0,30,29.84,10.0,WNW,3.5,-,N/A,,Clear,290,2013-09-18 19:53:00
1:53 PM,82.0,42.1,24,29.82,10.0,Calm,Calm,-,N/A,,Clear,0,2013-09-18 20:53:00
2:53 PM,84.9,41.0,21,29.79,10.0,North,8.1,-,N/A,,Clear,360,2013-09-18 21:53:00
3:53 PM,84.9,41.0,21,29.76,10.0,South,3.5,-,N/A,,Clear,170,2013-09-18 22:53:00
4:53 PM,86.0,41.0,20,29.76,10.0,North,4.6,-,N/A,,Clear,350,2013-09-18 23:53:00
5:53 PM,86.0,41.0,20,29.76,10.0,NW,5.8,-,N/A,,Clear,320,2013-09-19 00:53:00
6:53 PM,80.1,42.1,26,29.78,10.0,NW,12.7,-,N/A,,Clear,320,2013-09-19 01:53:00
7:53 PM,73.0,44.1,35,29.81,10.0,WNW,6.9,-,N/A,,Clear,290,2013-09-19 02:53:00
8:53 PM,68.0,45.0,43,29.83,10.0,NW,12.7,-,N/A,,Clear,310,2013-09-19 03:53:00
9:53 PM,64.9,45.0,48,29.84,10.0,NW,13.8,-,N/A,,Clear,310,2013-09-19 04:53:00
10:53 PM,63.0,45.0,52,29.85,10.0,NW,12.7,-,N/A,,Clear,310,2013-09-19 05:53:00
11:53 PM,61.0,45.0,56,29.85,10.0,WNW,4.6,-,N/A,,Clear,300,2013-09-19 06:53:00